Regional Weather Roundup
Issued by NWS Midland/Odessa, TX

Skip options and go directly to product.
Home | Oldest Version | Previous Version | Current Version | All | Text Only | Save Text | Print | Product List | Glossary Off

Skip product version selection by date and time.   

086
ASUS44 KMAF 020910
RWRMAF
MIDLAND AREA WEATHER ROUNDUP
NATIONAL WEATHER SERVICE MIDLAND TX
400 AM CDT TUE SEP 02 2014

...IN SOUTHWEST TEXAS AND SOUTHEAST NEW MEXICO...

CITY           SKY/WX    TMP DP  RH WIND       PRES   REMARKS
ALPINE         CLEAR     71  58  62 CALM      30.09S
ANDREWS        FAIR      80  59  49 S10G16    29.94R
ARTESIA        NOT AVBL
BIG SPRING     CLEAR     82  60  48 S12       29.95R
CARLSBAD       CLEAR     80  56  43 SE10      29.90R
DRYDEN           N/A     84  62  47 E10       29.90R
FORT STOCKTON  CLEAR     80  59  48 S17G24    29.92S
GUAD PASS      CLEAR     76  36  23 SW13      30.09F
HOBBS          CLEAR     77  59  53 S9        29.96R
MARFA          CLEAR     64  54  68 NE5       30.10S
MIDLAND AIRPK  NOT AVBL
MIDLAND INTL   CLEAR     82  60  47 S14       29.92R
ODESSA         CLEAR     82  59  45 S12       29.93R
PECOS          CLEAR     76  58  54 E5        29.86S
PRESIDIO       FAIR      83  59  43 N6        29.90S
SEMINOLE       CLEAR     78  58  50 S9        29.95S
SNYDER         CLEAR     79  61  54 S9        29.93S
WINK           CLEAR     82  61  48 SE14      29.88S
$$
...OTHER STATIONS IN TEXAS...

CITY           SKY/WX    TMP DP  RH WIND       PRES   REMARKS
ABILENE        CLEAR     81  67  62 S16       29.90R
AMARILLO       CLEAR     76  59  55 S16       29.90F
AUSTIN         MOCLDY    78  75  90 SE6       29.93F
BROWNSVILLE    CLEAR     81  77  88 SE8       29.85F
CORPUS CHRISTI PTCLDY    81  77  88 SE8       29.87F
DALLAS FTW     CLEAR     83  70  64 S16G24    29.87R
DEL RIO        CLEAR     83  71  67 SE13      29.87R
EL PASO        PTCLDY    79  39  23 S3        29.97S
HOUSTON INT    PTCLDY    77  75  94 CALM      29.94R
LUBBOCK        CLEAR     79  60  52 S14       29.93S
SAN ANGELO     CLEAR     80  68  66 S14       29.90F
SAN ANTONIO    CLOUDY    81  75  82 S8        29.94S
WACO           CLEAR     79  72  79 S16       29.91F
WICHITA FALLS  NOT AVBL
$$
...OTHER LOCATIONS IN NEW MEXICO...

CITY           SKY/WX    TMP DP  RH WIND       PRES   REMARKS
ALAMAGORDO     CLEAR     68  36  30 E3        29.99S
ALBUQUERQUE    CLEAR     72  40  31 W3        30.08S
CANNON AFB     CLEAR     68  44  41 S5        29.97R
CLOVIS           N/A     66  43  42 S8        29.99S
HOLLOMAN AFB   CLEAR     72  37  28 SE6       29.96S
ROSWELL        CLEAR     69  43  38 S3        29.93R
RUIDOSO        CLEAR     61  36  39 W9        30.21S
SANTA FE       CLEAR     63  30  28 NE6       30.14R
TRUTH OR CONSE CLEAR     68  38  33 NE3       30.03R
TUCUMCARI      CLEAR     69  42  37 N10       29.93R
$$

USA.gov is the U.S. government's official web portal to all federal, state and local government web resources and services.